{"data":{"norad_id":52150,"intl_designator":"2022-031A","name":"TK-2","alt_names":[],"object_type":"PAYLOAD","status":"ACTIVE","operator":null,"country":"PRC","launch_date":"2022-03-29","launch_site_code":"TAISC","launch_vehicle":null,"mission":null,"orbit_class":"UNKNOWN","rcs_meters":null,"size_class":null,"mass_kg":null,"dimensions":null,"purposes":[],"wikipedia_slug":null,"has_3d_model":false,"image_url":null,"decayed_at":null,"tle_current":{"epoch":"2026-05-25T04:05:10.476096Z","epoch_age_seconds":54345,"freshness":"FRESH","line1":"1 52150U 22031A   26145.17026014  .00002689  00000+0  20201-3 0  9992","line2":"2 52150  97.8315 341.0440 0015194 200.2448 159.8176 15.03391556227000","mean_motion":15.03391556,"eccentricity":0.0015194,"inclination_deg":97.8315,"raan_deg":341.044,"arg_perigee_deg":200.2448,"mean_anomaly_deg":159.8176,"bstar":0.00020201,"rev_number":22700,"period_min":95.783430088655,"perigee_km":545.91097048378,"apogee_km":566.98378549161,"semimajor_km":6934.5843779877,"source":"CELESTRAK","updated_at":"2026-05-25T13:37:57.647071Z"}}}